EHI
0 0 0 0 0 0 0 0 0 0 1 0 0 0 0 0 1 0 0 0 0 0 0 0 1 2 3 3 1 0 0 1 2 2 1 0 0 0 0 0 0 0 0 0
0 0 0 0 0 0 0 0 0 0 1 0 0 0 0 0 1 1 0 0 0 0 0 1 2 4 4 4 2 1 0 0 1 2 1 0 0 0 0 0 0 0 0 0
0 0 0 0 0 0 0 0 0 0 0 0 0 0 0 0 1 1 1 1 0 0 1 3 5 5 4 3 2 1 1 0 0 1 1 1 1 1 1 1 0 0 1 1
0 0 0 0 0 0 0 0 0 0 0 0 0 0 0 0 0 1 2 2 1 1 1 4 6 5 3 2 2 1 1 1 0 1 1 2 2 3 2 1 1 1 1 0
0 0 0 0 0 0 0 0 0 0 0 0 0 0 0 0 0 0 1 2 3 2 2 3 4 3 2 2 2 1 0 0 0 1 2 3 2 2 2 1 1 1 0 0
0 0 0 0 0 0 0 0 0 0 0 0 0 0 0 0 0 0 1 2 3 4 4 3 1 2 3 4 5 3 1 0 0 1 2 2 1 1 1 1 1 1 0 0
0 0 0 0 0 0 0 0 0 0 0 0 0 0 0 0 0 0 1 2 4 5 4 2 1 2 4 5 7 7 4 1 0 0 1 2 1 0 0 1 1 1 0 0
0 0 0 0 0 0 0 0 0 0 0 0 0 0 0 0 0 0 1 2 3 3 2 1 1 2 4 6 8 10 8 3 1 1 1 1 0 1 1 1 2 1 0 0
0 0 0 0 0 0 0 0 0 0 0 0 0 0 0 0 0 0 0 1 1 1 1 0 0 2 5 8 9 11 10 6 3 2 2 1 1 2 3 3 3 2 1 1
0 0 0 0 0 0 0 0 0 0 0 0 0 0 0 0 0 0 0 0 0 0 0 0 1 2 6 8 9 11 10 6 4 4 3 3 2 3 5 4 4 4 4 4
0 0 0 0 0 0 0 0 0 0 0 0 0 0 0 0 0 0 0 0 0 0 0 1 2 3 5 8 8 8 8 6 5 6 6 5 5 5 5 5 5 6 6 5
0 0 0 0 0 0 0 0 0 0 0 0 0 0 0 0 0 0 0 1 1 0 0 1 2 4 6 7 6 4 4 6 6 7 7 7 7 7 6 6 6 6 5 4
0 0 0 0 0 0 0 0 0 0 0 0 0 0 0 0 0 0 1 2 2 1 1 1 1 3 6 6 5 3 3 4 6 8 9 9 9 10 8 6 7 6 4 4
0 0 0 0 0 0 0 0 0 0 0 0 0 0 0 0 0 0 1 2 3 3 2 2 1 3 5 5 4 3 3 4 7 10 12 12 12 12 9 7 6 5 4 5
0 0 0 0 0 0 0 0 0 0 0 0 0 0 0 0 0 0 1 3 4 4 3 3 3 3 4 4 3 3 4 6 9 12 13 12 12 12 11 8 5 4 3 4
0 0 0 0 0 0 0 0 0 0 0 0 0 0 0 0 0 0 3 6 8 7 5 4 4 5 4 3 3 3 5 8 11 12 12 11 11 12 11 7 5 4 3 3
0 0 0 0 0 0 0 0 0 0 0 0 0 0 0 0 1 2 6 10 12 10 7 5 5 5 4 4 3 4 6 10 12 11 10 11 12 12 10 6 5 5 4 4
0 0 0 0 0 0 0 0 0 0 0 0 0 1 2 2 3 5 7 8 9 8 6 6 7 7 6 5 5 6 10 12 13 12 12 13 15 14 11 8 7 8 8 8
0 0 0 0 0 0 0 0 0 0 0 0 2 4 5 4 5 6 6 5 5 5 5 6 8 8 8 7 7 10 12 14 14 14 14 14 14 14 13 10 10 11 11 10
0 0 0 0 0 0 0 0 0 0 0 2 4 6 5 4 4 4 5 4 4 5 6 7 8 9 8 7 9 12 13 14 16 16 16 15 14 15 14 13 12 12 11 9
0 0 0 0 0 0 0 0 0 0 1 3 5 5 4 2 2 3 4 4 4 5 7 9 10 9 8 8 10 13 14 14 15 16 17 17 17 16 15 13 13 12 10 7
0 0 0 0 0 0 0 0 0 0 1 3 4 3 3 2 2 3 4 4 5 7 9 11 11 10 10 10 11 13 14 14 14 15 17 19 18 16 14 13 13 13 10 8
0 0 0 0 0 0 0 0 1 1 2 3 3 3 4 4 3 3 4 5 7 8 10 10 10 11 12 11 11 12 14 13 13 15 17 18 18 15 14 13 13 12 10 9
0 0 0 0 0 0 1 1 3 4 5 4 3 4 5 4 3 4 5 6 7 8 9 9 10 11 12 10 9 11 13 14 14 16 17 17 16 14 13 12 12 10 9 9
0 0 0 0 0 1 2 4 6 8 8 5 4 4 4 3 3 3 4 6 7 8 7 8 10 12 11 9 8 11 16 18 18 17 16 15 13 12 11 10 9 7 6 6
0 0 0 0 0 1 3 5 7 8 9 6 4 3 3 3 3 3 4 5 8 8 7 7 10 12 11 8 9 13 18 20 21 19 16 13 11 10 10 9 6 4 3 4
Wind_Speed
3 5 3 6 7 5 5 4 3 3 3 4 4 3 5 7 7 6 6 6 6 7 5 4 5 5 5 4 5 5 4 3 3 2 2 1 1 1 1 1 1 1 1 1
4 2 5 4 4 4 4 4 2 1 2 4 2 3 4 8 10 10 9 8 8 6 4 5 5 5 5 6 5 5 5 4 4 3 2 2 2 1 1 1 0 1 1 2
5 4 3 5 4 3 2 5 4 3 2 3 2 3 2 4 5 5 6 6 6 8 8 8 7 6 6 6 7 6 5 5 4 3 2 2 2 1 1 1 1 1 1 2
3 3 3 4 3 5 3 4 4 4 4 1 2 2 5 3 4 7 7 8 9 8 8 8 8 8 8 8 6 5 5 5 4 4 3 3 3 2 2 1 1 1 1 1
3 2 3 3 4 6 4 2 4 3 4 2 2 1 7 1 4 9 10 10 10 10 9 10 10 10 8 7 6 5 5 5 4 4 5 4 2 2 1 0 1 1 1 1
3 2 3 4 2 4 5 7 6 6 5 1 3 3 6 4 7 7 9 10 10 10 10 9 8 7 6 6 6 5 5 5 5 5 4 4 4 3 2 1 1 1 1 1
3 2 1 2 4 3 5 6 4 4 3 5 2 3 8 6 7 8 8 9 9 9 9 9 8 8 8 8 7 6 6 6 5 5 5 5 5 4 4 3 3 2 1 1
2 4 3 3 5 6 4 8 8 5 5 4 1 5 7 5 4 4 5 5 6 8 9 9 10 10 9 9 8 7 7 6 6 6 5 5 5 4 3 3 3 3 2 2
5 5 3 1 2 8 6 3 5 7 3 0 4 6 8 2 2 2 3 3 6 8 8 9 9 9 9 9 9 9 8 7 6 6 5 4 5 4 4 3 3 3 2 2
6 3 4 2 4 3 5 8 6 6 6 2 3 4 5 4 4 3 3 5 6 6 7 7 7 8 8 8 8 8 8 8 6 6 6 5 5 5 4 3 4 3 3 2
3 4 3 2 2 5 4 4 5 5 5 6 3 7 7 7 6 6 7 6 6 6 7 7 7 7 7 6 7 7 7 7 6 6 6 5 5 5 4 4 4 4 3 3
2 5 1 4 3 2 4 6 8 6 4 4 4 8 5 5 5 6 7 6 5 5 5 5 6 6 6 7 6 7 7 7 7 6 6 6 5 4 4 4 4 4 3 3
4 6 3 5 5 3 2 2 4 6 6 5 5 8 3 1 3 5 5 5 4 4 4 3 4 5 6 6 6 7 7 7 6 6 6 6 5 5 5 5 4 4 3 3
5 5 6 7 6 3 1 1 4 6 5 5 7 7 5 4 4 4 4 4 4 4 4 4 4 5 5 6 6 6 6 6 6 6 6 6 6 6 5 4 4 3 3 3
5 4 1 3 3 2 2 3 4 4 7 8 7 7 8 6 6 5 4 3 3 3 4 5 5 5 5 4 5 5 5 5 5 5 5 6 5 4 4 4 4 3 3 3
4 3 1 1 2 1 1 2 4 3 3 3 2 6 5 3 2 2 3 5 5 4 5 5 5 5 6 6 5 5 4 4 4 5 5 4 4 4 4 4 4 4 3 3
2 3 3 1 2 3 2 3 4 3 2 3 4 6 3 2 2 3 3 4 5 5 5 6 6 6 6 6 6 5 5 4 4 4 4 4 4 4 4 4 4 4 4 3
4 4 3 1 2 4 6 2 1 3 0 1 2 3 2 3 3 1 1 3 3 3 4 4 4 4 4 4 4 4 4 4 5 4 4 3 3 3 3 3 4 4 3 3
4 6 4 3 2 4 5 1 1 2 1 1 1 2 2 2 3 4 2 1 2 3 3 3 4 4 3 4 4 5 4 4 4 4 4 4 4 4 3 3 3 3 2 2
4 4 5 4 3 6 6 4 2 3 2 3 1 1 2 3 2 3 4 3 1 1 1 2 2 3 3 3 4 5 4 4 5 5 4 4 4 4 4 4 3 2 2 3
3 3 3 3 3 6 5 5 1 4 5 2 0 0 1 1 3 4 3 2 1 0 0 1 3 3 3 3 5 5 5 5 5 4 4 4 3 3 4 3 3 2 2 2
4 4 3 4 3 6 4 2 2 4 2 1 0 1 1 1 2 3 2 2 2 2 2 2 2 2 2 3 5 5 5 5 3 3 4 4 4 3 3 3 3 2 3 2
3 5 5 6 6 4 3 2 3 2 1 1 1 1 1 1 2 3 3 2 2 2 2 1 1 1 2 3 5 6 5 4 4 4 4 4 4 3 3 4 4 3 3 2
2 1 2 1 4 4 4 3 2 1 1 1 1 0 1 1 1 2 3 2 2 2 1 1 1 1 2 3 4 5 4 5 5 5 4 3 4 3 2 3 3 3 3 3
3 1 1 3 4 4 4 3 3 3 2 2 2 1 0 1 1 2 2 2 2 1 1 0 1 3 4 3 3 4 4 5 5 4 4 4 4 4 3 3 3 4 4 5
4 5 4 6 6 4 5 5 3 2 3 2 2 3 3 0 1 1 2 3 2 2 1 1 2 3 3 3 3 3 4 5 6 5 4 4 3 3 3 3 1 1 2 4
Wind_Direction
38 79 165 200 189 175 160 157 181 225 193 152 198 212 191 183 186 193 199 202 208 214 207 183 179 172 168 170 169 169 167 169 148 141 149 150 195 248 268 243 219 200 184 161
44 255 220 174 145 120 142 150 170 302 140 151 189 240 201 190 200 201 201 206 208 205 190 187 180 174 177 181 180 178 182 180 176 173 166 163 160 191 220 265 265 223 199 191
180 231 164 132 138 133 167 178 185 174 77 58 94 331 218 212 206 208 207 206 201 204 199 195 187 187 183 187 188 190 189 186 184 170 129 102 74 44 27 336 295 269 220 209
214 236 160 152 180 156 222 210 166 145 117 318 107 279 286 225 212 216 214 207 207 207 200 193 188 188 191 195 189 188 184 182 181 166 159 161 169 192 223 225 242 283 256 231
230 185 154 181 201 164 192 125 113 119 122 62 31 152 288 188 228 231 222 213 208 199 193 192 194 195 194 190 184 183 177 181 180 173 175 172 185 206 220 221 259 293 307 286
235 223 188 188 150 145 125 76 60 52 72 359 241 169 278 229 220 233 224 218 210 197 194 195 193 189 191 185 182 178 176 188 184 180 180 178 187 196 193 212 231 252 275 284
330 314 257 144 101 69 103 96 55 15 18 250 246 191 249 246 225 220 218 216 207 193 192 193 187 189 191 187 186 180 178 193 189 184 189 192 195 193 199 206 214 223 240 248
167 282 245 180 165 165 165 141 155 182 206 264 286 228 251 256 248 228 217 211 194 191 194 197 195 194 193 191 187 183 185 194 191 192 199 199 195 195 203 203 208 216 224 235
173 246 290 240 156 138 137 162 157 129 139 164 275 283 301 298 298 233 207 193 200 200 198 198 195 193 191 190 190 188 187 193 194 196 197 200 201 201 206 208 208 220 225 224
157 212 295 298 80 45 140 144 108 117 140 217 283 269 250 254 244 240 228 215 215 204 201 197 192 193 193 191 187 184 186 193 197 194 200 209 209 209 206 201 213 218 221 224
123 148 312 16 166 182 123 105 110 112 143 152 218 264 230 219 216 212 224 222 215 207 203 197 193 190 186 179 179 183 190 191 194 199 202 209 206 203 201 207 215 214 216 219
125 119 235 272 279 199 156 162 146 147 191 166 169 261 267 226 220 208 218 225 220 208 203 194 186 180 178 183 184 188 192 195 203 199 197 206 205 198 201 212 219 212 213 219
126 108 78 344 340 7 82 143 140 124 120 151 168 255 287 276 238 225 218 221 215 199 185 171 168 179 185 189 189 193 196 200 198 190 193 202 204 201 207 213 213 207 207 209
112 104 153 191 217 212 223 191 155 128 145 185 213 240 281 276 262 252 233 216 198 188 175 171 178 188 190 190 191 195 203 198 189 186 192 201 206 204 206 204 201 202 199 202
89 111 182 236 245 204 213 209 182 181 180 180 216 220 242 241 240 239 221 198 180 181 174 179 185 186 183 184 188 189 193 191 185 182 194 205 203 196 193 193 197 199 201 212
62 113 83 333 332 1 299 252 202 211 185 202 204 249 254 269 259 245 202 176 182 189 186 184 182 177 180 185 187 183 185 182 171 181 198 198 189 190 193 197 193 191 199 204
71 107 100 254 307 34 287 248 203 205 212 174 205 246 291 304 273 231 217 187 189 197 192 186 186 185 187 187 178 181 184 168 169 186 193 187 184 190 197 197 190 197 203 199
134 112 123 140 87 213 240 258 170 161 149 262 252 278 261 242 257 272 189 178 197 208 206 199 189 185 185 177 171 170 159 164 175 183 187 184 182 188 187 188 200 204 200 193
150 137 124 124 164 269 292 299 158 153 262 341 303 322 337 347 28 4 360 177 215 216 207 199 189 180 165 164 163 149 152 160 169 184 192 189 184 184 186 196 201 193 182 195
71 97 116 126 151 222 244 288 291 124 266 324 357 334 4 56 65 289 316 314 279 247 203 171 151 135 140 162 147 147 166 172 188 198 199 191 186 186 190 193 188 172 170 188
61 58 116 153 199 255 268 300 28 151 240 289 356 346 60 115 226 264 301 308 284 126 108 136 132 137 161 158 148 162 175 194 203 190 177 175 180 186 182 171 166 157 165 174
161 152 172 153 187 248 305 25 146 215 251 162 167 192 165 258 315 326 330 321 359 30 41 80 123 148 154 153 155 173 194 203 178 163 164 170 174 180 174 161 164 162 166 178
193 190 184 186 210 247 289 248 250 219 200 233 211 259 193 1 345 338 334 338 4 29 32 51 133 144 151 169 172 184 202 180 162 163 174 174 167 171 169 169 173 172 177 187
278 141 136 263 272 281 295 290 301 279 240 256 229 224 134 27 324 333 334 332 347 355 13 27 95 152 185 193 198 198 186 171 164 172 185 176 165 167 174 185 183 184 193 197
229 182 163 256 274 311 307 301 309 332 353 0 350 338 260 126 320 323 321 309 303 310 327 330 211 211 218 212 208 196 174 165 169 178 188 186 179 180 185 196 198 197 206 200
207 188 188 227 231 222 256 281 297 315 317 317 339 342 335 317 307 328 311 297 293 300 304 275 253 236 228 214 217 205 176 167 170 182 190 190 186 186 186 187 214 272 235 221